,,Stat6,,Stat2,,Stat8,,Stat9,,Stat10,,Wind1,,Wind1,
time,status,PA1M_AVG,status,PR1M_SUM,status,RH1M_AVG,status,SR1M_AVG,status,TA1M_AVG,status,W1dAve1m,status,W1sAve1m,
2007-06-11, 00:00:00,VALID,916.161,VALID,0,VALID,100,VALID,-0.0339617,VALID,19.8204,VALID,173,VALID,0.110377,
2007-06-11, 00:01:00,VALID,916.166,VALID,0,VALID,100,VALID,-0.0169808,VALID,19.8199,VALID,172,VALID,0.059304,
2007-06-11, 00:02:00,VALID,916.188,VALID,0,VALID,100,VALID,0,VALID,19.8266,VALID,172,VALID,0.10918,
2007-06-11, 00:03:00,VALID,916.196,VALID,0,VALID,100,VALID,-0.0509425,VALID,19.8293,VALID,172,VALID,0.191964,
2007-06-11, 00:04:00,VALID,916.218,VALID,0,VALID,100,VALID,-0.0509425,VALID,19.8688,VALID,165,VALID,0.190341,
2007-06-11, 00:05:00,VALID,916.231,VALID,0,VALID,100,VALID,0,VALID,19.878,VALID,126,VALID,0.493963,
2007-06-11, 00:06:00,VALID,916.247,VALID,0,VALID,100,VALID,0,VALID,19.8553,VALID,104,VALID,0.561547,
2007-06-11, 00:07:00,VALID,916.244,VALID,0,VALID,100,VALID,0,VALID,19.8456,VALID,95,VALID,0.727083,
2007-06-11, 00:08:00,VALID,916.249,VALID,0,VALID,100,VALID,-0.0169808,VALID,19.8396,VALID,87,VALID,0.796875,
2007-06-11, 00:09:00,VALID,916.229,VALID,0,VALID,100,VALID,0,VALID,19.8293,VALID,86,VALID,0.51399,
2007-06-11, 00:10:00,VALID,916.223,VALID,0,VALID,100,VALID,0,VALID,19.8031,VALID,86,VALID,0.733259,
2007-06-11, 00:11:00,VALID,916.226,VALID,0,VALID,100,VALID,-0.0169808,VALID,19.8099,VALID,85,VALID,0.525391,
2007-06-11, 00:12:00,VALID,916.211,VALID,0,VALID,100,VALID,-0.0169808,VALID,19.8131,VALID,93,VALID,0.650856,
2007-06-11, 00:13:00,VALID,916.204,VALID,0,VALID,100,VALID,0,VALID,19.7707,VALID,123,VALID,0.775981,
2007-06-11, 00:14:00,VALID,916.209,VALID,0,VALID,100,VALID,-0.0509425,VALID,19.7552,VALID,134,VALID,0.654474,
2007-06-11, 00:15:00,VALID,916.199,VALID,0,VALID,100,VALID,-0.0849042,VALID,19.7365,VALID,154,VALID,0.580305,
2007-06-11, 00:16:00,VALID,916.195,VALID,0,VALID,100,VALID,-0.0679233,VALID,19.7365,VALID,133,VALID,0.674107,
2007-06-11, 00:17:00,VALID,916.192,VALID,0,VALID,100,VALID,-0.101885,VALID,19.7397,VALID,144,VALID,0.830859,
2007-06-11, 00:18:00,VALID,916.18,VALID,0,VALID,100,VALID,-0.101885,VALID,19.7238,VALID,147,VALID,1.06318,
2007-06-11, 00:19:00,VALID,916.152,VALID,0,VALID,100,VALID,-0.135847,VALID,19.7208,VALID,142,VALID,0.867188,
2007-06-11, 00:20:00,VALID,916.146,VALID,0,VALID,100,VALID,-0.101885,VALID,19.7108,VALID,140,VALID,0.895647,
2007-06-11, 00:21:00,VALID,916.107,VALID,0,VALID,100,VALID,-0.101885,VALID,19.714,VALID,144,VALID,0.900036,
2007-06-11, 00:22:00,VALID,916.087,VALID,0,VALID,100,VALID,-0.0849042,VALID,19.7203,VALID,139,VALID,0.911328,
2007-06-11, 00:23:00,VALID,916.07,VALID,0,VALID,100,VALID,-0.0849042,VALID,19.7205,VALID,130,VALID,0.835582,
2007-06-11, 00:24:00,VALID,916.048,VALID,0,VALID,100,VALID,-0.101885,VALID,19.7138,VALID,126,VALID,0.844336,
2007-06-11, 00:25:00,VALID,916.021,VALID,0,VALID,100,VALID,-0.101885,VALID,19.7138,VALID,133,VALID,0.714558,
2007-06-11, 00:26:00,VALID,916.002,VALID,0,VALID,100,VALID,-0.118866,VALID,19.7073,VALID,134,VALID,0.754278,
2007-06-11, 00:27:00,VALID,915.995,VALID,0,VALID,100,VALID,-0.118866,VALID,19.7043,VALID,140,VALID,0.800145,
2007-06-11, 00:28:00,VALID,915.988,VALID,0,VALID,100,VALID,-0.101885,VALID,19.7208,VALID,147,VALID,0.926417,
2007-06-11, 00:29:00,VALID,915.984,VALID,0,VALID,100,VALID,-0.0509425,VALID,19.71,VALID,155,VALID,0.443496,
2007-06-11, 00:30:00,VALID,915.989,VALID,0,VALID,100,VALID,-0.0339617,VALID,19.7093,VALID,156,VALID,0.81875,
2007-06-11, 00:31:00,VALID,915.986,VALID,0,VALID,100,VALID,0.0339617,VALID,19.6993,VALID,158,VALID,0.850718,
2007-06-11, 00:32:00,VALID,915.983,VALID,0,VALID,100,VALID,0,VALID,19.7025,VALID,162,VALID,0.781808,
2007-06-11, 00:33:00,VALID,915.992,VALID,0,VALID,100,VALID,-0.0169808,VALID,19.7025,VALID,162,VALID,0.779576,
2007-06-11, 00:34:00,VALID,915.984,VALID,0,VALID,100,VALID,0,VALID,19.6958,VALID,174,VALID,0.899709,
2007-06-11, 00:35:00,VALID,915.98,VALID,0,VALID,100,VALID,0,VALID,19.6863,VALID,165,VALID,0.852965,
2007-06-11, 00:36:00,VALID,915.974,VALID,0,VALID,100,VALID,0.0339617,VALID,19.6863,VALID,151,VALID,0.857986,
2007-06-11, 00:37:00,VALID,915.982,VALID,0,VALID,100,VALID,0.0339617,VALID,19.6761,VALID,155,VALID,0.470084,
2007-06-11, 00:38:00,VALID,915.99,VALID,0,VALID,100,VALID,0.0169808,VALID,19.6863,VALID,165,VALID,0.479911,
2007-06-11, 00:39:00,VALID,915.976,VALID,0,VALID,100,VALID,0,VALID,19.6896,VALID,171,VALID,0.672041,
2007-06-11, 00:40:00,VALID,915.981,VALID,0,VALID,100,VALID,0,VALID,19.6798,VALID,157,VALID,0.643674,
2007-06-11, 00:41:00,VALID,915.967,VALID,0,VALID,100,VALID,0.0169808,VALID,19.6699,VALID,137,VALID,0.456055,
2007-06-11, 00:42:00,VALID,915.97,VALID,0,VALID,100,VALID,0.0169808,VALID,19.6666,VALID,124,VALID,0.295117,
2007-06-11, 00:43:00,VALID,915.986,VALID,0,VALID,100,VALID,0,VALID,19.6928,VALID,125,VALID,0.104288,
2007-06-11, 00:44:00,VALID,915.969,VALID,0,VALID,100,VALID,0.0169808,VALID,19.6796,VALID,125,VALID,0,
2007-06-11, 00:45:00,VALID,915.955,VALID,0,VALID,100,VALID,-0.0169808,VALID,19.6731,VALID,125,VALID,0.267578,
2007-06-11, 00:46:00,VALID,915.943,VALID,0,VALID,100,VALID,-0.0169808,VALID,19.6833,VALID,125,VALID,0.4133,
2007-06-11, 00:47:00,VALID,915.927,VALID,0,VALID,100,VALID,-0.0169808,VALID,19.6863,VALID,125,VALID,0.576257,
2007-06-11, 00:48:00,VALID,915.912,VALID,0,VALID,100,VALID,-0.0169808,VALID,19.706,VALID,126,VALID,0.619474,
2007-06-11, 00:49:00,VALID,915.894,VALID,0,VALID,100,VALID,0.0169808,VALID,19.6831,VALID,135,VALID,0.867001,
2007-06-11, 00:50:00,VALID,915.879,VALID,0,VALID,100,VALID,0,VALID,19.6831,VALID,135,VALID,0.678416,
2007-06-11, 00:51:00,VALID,915.862,VALID,0,VALID,100,VALID,0.0169808,VALID,19.6763,VALID,149,VALID,0.686384,
2007-06-11, 00:52:00,VALID,915.846,VALID,0,VALID,100,VALID,-0.0169808,VALID,19.6896,VALID,149,VALID,0.335258,
2007-06-11, 00:53:00,VALID,915.826,VALID,0,VALID,100,VALID,0,VALID,19.6993,VALID,155,VALID,0.678516,
2007-06-11, 00:54:00,VALID,915.814,VALID,0,VALID,100,VALID,0,VALID,19.6993,VALID,156,VALID,0.477307,
2007-06-11, 00:55:00,VALID,915.802,VALID,0,VALID,100,VALID,-0.0169808,VALID,19.7023,VALID,157,VALID,0.657965,
2007-06-11, 00:56:00,VALID,915.796,VALID,0,VALID,100,VALID,0,VALID,19.712,VALID,162,VALID,0.417614,
2007-06-11, 00:57:00,VALID,915.782,VALID,0,VALID,100,VALID,0,VALID,19.7188,VALID,159,VALID,0.449673,
2007-06-11, 00:58:00,VALID,915.785,VALID,0,VALID,100,VALID,0.0169808,VALID,19.7185,VALID,155,VALID,0.427083,
2007-06-11, 00:59:00,VALID,915.751,VALID,0,VALID,100,VALID,-0.0169808,VALID,19.7258,VALID,151,VALID,0.565662,
2007-06-11, 01:00:00,VALID,915.737,VALID,0,VALID,100,VALID,-0.0339617,VALID,19.7265,VALID,144,VALID,0.739462,
2007-06-11, 01:01:00,VALID,915.712,VALID,0,VALID,100,VALID,-0.0679233,VALID,19.7195,VALID,132,VALID,0.349746,
2007-06-11, 01:02:00,VALID,915.688,VALID,0,VALID,100,VALID,-0.0679233,VALID,19.733,VALID,132,VALID,0.0517805,
2007-06-11, 01:03:00,VALID,915.678,VALID,0,VALID,100,VALID,-0.0509425,VALID,19.7365,VALID,132,VALID,0,
2007-06-11, 01:04:00,VALID,915.659,VALID,0,VALID,100,VALID,-0.0849042,VALID,19.7625,VALID,132,VALID,0.00106534,
2007-06-11, 01:05:00,VALID,915.64,VALID,0,VALID,100,VALID,-0.0849042,VALID,19.7976,VALID,132,VALID,0,
2007-06-11, 01:06:00,VALID,915.635,VALID,0,VALID,100,VALID,-0.0849042,VALID,19.8368,VALID,132,VALID,0.0193537,
2007-06-11, 01:07:00,VALID,915.627,VALID,0,VALID,100,VALID,-0.101885,VALID,19.8663,VALID,132,VALID,0.115916,
2007-06-11, 01:08:00,VALID,915.616,VALID,0,VALID,100,VALID,-0.0679233,VALID,19.8823,VALID,132,VALID,0,
2007-06-11, 01:09:00,VALID,915.613,VALID,0,VALID,100,VALID,-0.0679233,VALID,19.9047,VALID,132,VALID,0,
2007-06-11, 01:10:00,VALID,915.593,VALID,0,VALID,100,VALID,-0.0509425,VALID,19.9409,VALID,132,VALID,0,
2007-06-11, 01:11:00,VALID,915.577,VALID,0,VALID,100,VALID,-0.0849042,VALID,19.9472,VALID,132,VALID,0,
2007-06-11, 01:12:00,VALID,915.555,VALID,0,VALID,100,VALID,-0.101885,VALID,19.9574,VALID,132,VALID,0,
2007-06-11, 01:13:00,VALID,915.538,VALID,0,VALID,100,VALID,-0.0849042,VALID,19.9369,VALID,132,VALID,0,
2007-06-11, 01:14:00,VALID,915.509,VALID,0,VALID,100,VALID,-0.101885,VALID,19.9477,VALID,132,VALID,0,
2007-06-11, 01:15:00,VALID,915.479,VALID,0,VALID,100,VALID,-0.118866,VALID,19.9539,VALID,132,VALID,0,
2007-06-11, 01:16:00,VALID,915.458,VALID,0,VALID,100,VALID,-0.101885,VALID,19.9669,VALID,132,VALID,0,
2007-06-11, 01:17:00,VALID,915.435,VALID,0,VALID,100,VALID,-0.101885,VALID,19.9896,VALID,132,VALID,0.0206473,
2007-06-11, 01:18:00,VALID,915.417,VALID,0,VALID,100,VALID,-0.101885,VALID,19.9701,VALID,132,VALID,0.0828488,
2007-06-11, 01:19:00,VALID,915.4,VALID,0,VALID,100,VALID,-0.101885,VALID,19.9507,VALID,132,VALID,0.118555,
2007-06-11, 01:20:00,VALID,915.385,VALID,0,VALID,100,VALID,-0.0849042,VALID,19.9409,VALID,132,VALID,0,
2007-06-11, 01:21:00,VALID,915.365,VALID,0,VALID,100,VALID,-0.0849042,VALID,19.9212,VALID,132,VALID,0.00106534,
2007-06-11, 01:22:00,VALID,915.365,VALID,0,VALID,100,VALID,-0.0849042,VALID,19.9215,VALID,132,VALID,0.0138672,
2007-06-11, 01:23:00,VALID,915.366,VALID,0,VALID,100,VALID,-0.101885,VALID,19.9147,VALID,132,VALID,0.0225694,
2007-06-11, 01:24:00,VALID,915.359,VALID,0,VALID,100,VALID,-0.0679233,VALID,19.9344,VALID,132,VALID,0,
2007-06-11, 01:25:00,VALID,915.358,VALID,0,VALID,100,VALID,-0.0849042,VALID,19.9537,VALID,132,VALID,0.101563,
2007-06-11, 01:26:00,VALID,915.34,VALID,0,VALID,100,VALID,-0.0509425,VALID,19.9507,VALID,132,VALID,0.0334821,
2007-06-11, 01:27:00,VALID,915.354,VALID,0,VALID,100,VALID,-0.0339617,VALID,19.9399,VALID,132,VALID,0.151163,
2007-06-11, 01:28:00,VALID,915.355,VALID,0,VALID,100,VALID,-0.101885,VALID,19.9344,VALID,132,VALID,0,
2007-06-11, 01:29:00,VALID,915.348,VALID,0,VALID,100,VALID,-0.0849042,VALID,19.9474,VALID,132,VALID,0.00109012,
2007-06-11, 01:30:00,VALID,915.353,VALID,0,VALID,100,VALID,-0.101885,VALID,19.9504,VALID,132,VALID,0.0544872,
2007-06-11, 01:31:00,VALID,915.344,VALID,0,VALID,100,VALID,-0.0509425,VALID,19.9467,VALID,132,VALID,0.104833,
2007-06-11, 01:32:00,VALID,915.327,VALID,0,VALID,100,VALID,-0.0679233,VALID,19.9537,VALID,133,VALID,0.0874619,
2007-06-11, 01:33:00,VALID,915.325,VALID,0,VALID,100,VALID,-0.0509425,VALID,19.9631,VALID,145,VALID,0.127539,
2007-06-11, 01:34:00,VALID,915.32,VALID,0,VALID,100,VALID,-0.0679233,VALID,19.9669,VALID,145,VALID,0.0577762,
2007-06-11, 01:35:00,VALID,915.321,VALID,0,VALID,100,VALID,-0.0849042,VALID,19.9701,VALID,152,VALID,0.161979,
2007-06-11, 01:36:00,VALID,915.317,VALID,0,VALID,100,VALID,-0.0849042,VALID,19.9504,VALID,164,VALID,0.0917969,
2007-06-11, 01:37:00,VALID,915.314,VALID,0,VALID,100,VALID,-0.0679233,VALID,19.9377,VALID,174,VALID,0.375186,
2007-06-11, 01:38:00,VALID,915.313,VALID,0,VALID,100,VALID,-0.0509425,VALID,19.915,VALID,183,VALID,0.497024,
2007-06-11, 01:39:00,VALID,915.308,VALID,0,VALID,100,VALID,-0.0849042,VALID,19.8823,VALID,183,VALID,0.362909,
2007-06-11, 01:40:00,VALID,915.293,VALID,0,VALID,100,VALID,-0.0509425,VALID,19.8758,VALID,183,VALID,0.32976,
2007-06-11, 01:41:00,VALID,915.289,VALID,0,VALID,100,VALID,-0.0509425,VALID,19.8755,VALID,183,VALID,0.12282,
2007-06-11, 01:42:00,VALID,915.278,VALID,0,VALID,100,VALID,-0.101885,VALID,19.882,VALID,183,VALID,0.0911458,
2007-06-11, 01:43:00,VALID,915.273,VALID,0,VALID,100,VALID,-0.0339617,VALID,19.8915,VALID,183,VALID,0.00576637,
2007-06-11, 01:44:00,VALID,915.261,VALID,0,VALID,100,VALID,-0.0849042,VALID,19.905,VALID,183,VALID,0.0215774,
2007-06-11, 01:45:00,VALID,915.275,VALID,0,VALID,100,VALID,-0.0679233,VALID,19.9047,VALID,183,VALID,0.0697798,
2007-06-11, 01:46:00,VALID,915.252,VALID,0,VALID,100,VALID,-0.0849042,VALID,19.9182,VALID,183,VALID,0.138822,
2007-06-11, 01:47:00,VALID,915.238,VALID,0,VALID,100,VALID,-0.0849042,VALID,19.9177,VALID,183,VALID,0.275856,
2007-06-11, 01:48:00,VALID,915.224,VALID,0,VALID,100,VALID,-0.0849042,VALID,19.9244,VALID,183,VALID,0.548651,
2007-06-11, 01:49:00,VALID,915.212,VALID,0,VALID,100,VALID,-0.0509425,VALID,19.9177,VALID,181,VALID,0.524528,
2007-06-11, 01:50:00,VALID,915.209,VALID,0,VALID,100,VALID,-0.101885,VALID,19.915,VALID,181,VALID,0.607422,
2007-06-11, 01:51:00,VALID,915.203,VALID,0,VALID,100,VALID,-0.0849042,VALID,19.895,VALID,181,VALID,0.402798,
2007-06-11, 01:52:00,VALID,915.197,VALID,0,VALID,100,VALID,-0.0849042,VALID,19.8985,VALID,181,VALID,0.0941134,
2007-06-11, 01:53:00,VALID,915.217,VALID,0,VALID,100,VALID,-0.0849042,VALID,19.9052,VALID,181,VALID,0.331012,
2007-06-11, 01:54:00,VALID,915.214,VALID,0,VALID,100,VALID,-0.101885,VALID,19.895,VALID,181,VALID,0.298438,
2007-06-11, 01:55:00,VALID,915.21,VALID,0,VALID,100,VALID,-0.101885,VALID,19.9052,VALID,181,VALID,0.0277778,
2007-06-11, 01:56:00,VALID,915.218,VALID,0,VALID,100,VALID,-0.0339617,VALID,19.905,VALID,181,VALID,0.212891,
2007-06-11, 01:57:00,VALID,915.214,VALID,0,VALID,100,VALID,-0.0849042,VALID,19.9085,VALID,174,VALID,0.417039,
2007-06-11, 01:58:00,VALID,915.206,VALID,0,VALID,100,VALID,-0.0679233,VALID,19.8955,VALID,168,VALID,0.1008,
2007-06-11, 01:59:00,VALID,915.211,VALID,0,VALID,100,VALID,-0.0679233,VALID,19.905,VALID,168,VALID,0.145597,
2007-06-11, 02:00:00,VALID,915.182,VALID,0,VALID,100,VALID,-0.0679233,VALID,19.8955,VALID,168,VALID,0.322173,
2007-06-11, 02:01:00,VALID,915.177,VALID,0,VALID,100,VALID,-0.0679233,VALID,19.8952,VALID,168,VALID,0.125744,
2007-06-11, 02:02:00,VALID,915.161,VALID,0,VALID,100,VALID,-0.0339617,VALID,19.8952,VALID,168,VALID,0.220052,
2007-06-11, 02:03:00,VALID,915.151,VALID,0,VALID,100,VALID,-0.0679233,VALID,19.9052,VALID,168,VALID,0.00800305,
2007-06-11, 02:04:00,VALID,915.131,VALID,0,VALID,100,VALID,-0.0849042,VALID,19.9117,VALID,168,VALID,0.0983232,
2007-06-11, 02:05:00,VALID,915.123,VALID,0,VALID,100,VALID,-0.101885,VALID,19.9085,VALID,162,VALID,0.141667,
2007-06-11, 02:06:00,VALID,915.099,VALID,0,VALID,100,VALID,-0.0509425,VALID,19.9147,VALID,162,VALID,0.173399,
2007-06-11, 02:07:00,VALID,915.08,VALID,0,VALID,100,VALID,-0.0679233,VALID,19.9182,VALID,162,VALID,0.320122,
2007-06-11, 02:08:00,VALID,915.077,VALID,0,VALID,100,VALID,-0.0679233,VALID,19.905,VALID,162,VALID,0.0450581,
2007-06-11, 02:09:00,VALID,915.071,VALID,0,VALID,100,VALID,-0.0509425,VALID,19.911,VALID,162,VALID,0.257617,
2007-06-11, 02:10:00,VALID,915.065,VALID,0,VALID,100,VALID,-0.0169808,VALID,19.915,VALID,162,VALID,0.131288,
2007-06-11, 02:11:00,VALID,915.07,VALID,0,VALID,100,VALID,-0.101885,VALID,19.9085,VALID,162,VALID,0.133878,
2007-06-11, 02:12:00,VALID,915.076,VALID,0,VALID,100,VALID,-0.118866,VALID,19.9155,VALID,162,VALID,0.275915,
2007-06-11, 02:13:00,VALID,915.074,VALID,0,VALID,100,VALID,-0.101885,VALID,19.8987,VALID,158,VALID,0.540483,
2007-06-11, 02:14:00,VALID,915.065,VALID,0,VALID,100,VALID,-0.0849042,VALID,19.8855,VALID,135,VALID,0.830543,
2007-06-11, 02:15:00,VALID,915.046,VALID,0,VALID,100,VALID,-0.0169808,VALID,19.8433,VALID,128,VALID,0.834821,
2007-06-11, 02:16:00,VALID,915.036,VALID,0,VALID,100,VALID,-0.0849042,VALID,19.8468,VALID,111,VALID,0.99272,
2007-06-11, 02:17:00,VALID,915.027,VALID,0,VALID,100,VALID,-0.0169808,VALID,19.8303,VALID,128,VALID,1.22443,
2007-06-11, 02:18:00,VALID,914.998,VALID,0,VALID,100,VALID,-0.101885,VALID,19.8174,VALID,113,VALID,1.44893,
2007-06-11, 02:19:00,VALID,914.992,VALID,0,VALID,100,VALID,-0.0849042,VALID,19.8176,VALID,107,VALID,1.38045,
2007-06-11, 02:20:00,VALID,914.975,VALID,0,VALID,100,VALID,-0.0679233,VALID,19.8141,VALID,107,VALID,1.39426,
2007-06-11, 02:21:00,VALID,914.955,VALID,0,VALID,100,VALID,-0.0849042,VALID,19.8014,VALID,106,VALID,1.20274,
2007-06-11, 02:22:00,VALID,914.945,VALID,0,VALID,100,VALID,-0.0679233,VALID,19.7976,VALID,114,VALID,1.14615,
2007-06-11, 02:23:00,VALID,914.94,VALID,0,VALID,100,VALID,-0.101885,VALID,19.7817,VALID,108,VALID,0.879836,
2007-06-11, 02:24:00,VALID,914.927,VALID,0,VALID,100,VALID,-0.0169808,VALID,19.7849,VALID,110,VALID,0.951029,
2007-06-11, 02:25:00,VALID,914.924,VALID,0,VALID,100,VALID,-0.0509425,VALID,19.7689,VALID,102,VALID,0.810454,
2007-06-11, 02:26:00,VALID,914.927,VALID,0,VALID,100,VALID,-0.0849042,VALID,19.7527,VALID,106,VALID,1.14405,
2007-06-11, 02:27:00,VALID,914.91,VALID,0,VALID,100,VALID,-0.0509425,VALID,19.73,VALID,113,VALID,1.08784,
2007-06-11, 02:28:00,VALID,914.925,VALID,0,VALID,100,VALID,-0.0679233,VALID,19.7268,VALID,117,VALID,0.73544,
2007-06-11, 02:29:00,VALID,914.941,VALID,0,VALID,100,VALID,-0.0679233,VALID,19.7233,VALID,128,VALID,0.433321,
2007-06-11, 02:30:00,VALID,914.943,VALID,0,VALID,100,VALID,-0.0339617,VALID,19.7235,VALID,131,VALID,0.814808,
2007-06-11, 02:31:00,VALID,914.952,VALID,0,VALID,100,VALID,-0.0509425,VALID,19.7138,VALID,128,VALID,0.839286,
2007-06-11, 02:32:00,VALID,914.975,VALID,0,VALID,100,VALID,-0.101885,VALID,19.7073,VALID,137,VALID,1.0459,
2007-06-11, 02:33:00,VALID,914.975,VALID,0,VALID,100,VALID,-0.0679233,VALID,19.704,VALID,130,VALID,1.05938,
2007-06-11, 02:34:00,VALID,914.968,VALID,0,VALID,100,VALID,-0.0679233,VALID,19.6976,VALID,135,VALID,0.997713,
2007-06-11, 02:35:00,VALID,914.963,VALID,0,VALID,100,VALID,-0.0679233,VALID,19.6943,VALID,120,VALID,0.812678,
2007-06-11, 02:36:00,VALID,914.972,VALID,0,VALID,100,VALID,-0.0509425,VALID,19.7073,VALID,108,VALID,0.687314,
2007-06-11, 02:37:00,VALID,914.966,VALID,0,VALID,100,VALID,-0.0509425,VALID,19.72,VALID,87,VALID,0.792151,
2007-06-11, 02:38:00,VALID,914.944,VALID,0,VALID,100,VALID,-0.0849042,VALID,19.7527,VALID,67,VALID,0.602273,
2007-06-11, 02:39:00,VALID,914.935,VALID,0,VALID,100,VALID,-0.101885,VALID,19.7787,VALID,61,VALID,0.403587,
2007-06-11, 02:40:00,VALID,914.914,VALID,0,VALID,100,VALID,-0.0849042,VALID,19.7787,VALID,56,VALID,0.411272,
2007-06-11, 02:41:00,VALID,914.902,VALID,0,VALID,100,VALID,-0.101885,VALID,19.7817,VALID,56,VALID,0.299419,
2007-06-11, 02:42:00,VALID,914.89,VALID,0,VALID,100,VALID,-0.118866,VALID,19.7657,VALID,56,VALID,0.0707031,
2007-06-11, 02:43:00,VALID,914.873,VALID,0,VALID,100,VALID,-0.0679233,VALID,19.7592,VALID,56,VALID,0,
2007-06-11, 02:44:00,VALID,914.849,VALID,0,VALID,100,VALID,-0.0509425,VALID,19.7617,VALID,56,VALID,0,
2007-06-11, 02:45:00,VALID,914.856,VALID,0,VALID,100,VALID,0,VALID,19.7447,VALID,56,VALID,0.184952,
2007-06-11, 02:46:00,VALID,914.843,VALID,0,VALID,100,VALID,0.0339617,VALID,19.7285,VALID,71,VALID,0.505327,
2007-06-11, 02:47:00,VALID,914.849,VALID,0,VALID,100,VALID,0.0339617,VALID,19.7153,VALID,102,VALID,0.697976,
2007-06-11, 02:48:00,VALID,914.845,VALID,0,VALID,100,VALID,0.0339617,VALID,19.7085,VALID,128,VALID,0.713068,
2007-06-11, 02:49:00,VALID,914.84,VALID,0,VALID,100,VALID,0,VALID,19.6961,VALID,136,VALID,0.798692,
2007-06-11, 02:50:00,VALID,914.837,VALID,0,VALID,100,VALID,0.0339617,VALID,19.6991,VALID,136,VALID,0.901344,
2007-06-11, 02:51:00,VALID,914.842,VALID,0,VALID,100,VALID,0.0169808,VALID,19.6991,VALID,146,VALID,0.706287,
2007-06-11, 02:52:00,VALID,914.834,VALID,0,VALID,100,VALID,0.0169808,VALID,19.722,VALID,152,VALID,0.705171,
2007-06-11, 02:53:00,VALID,914.83,VALID,0,VALID,100,VALID,0.0169808,VALID,19.722,VALID,158,VALID,0.72877,
2007-06-11, 02:54:00,VALID,914.823,VALID,0,VALID,100,VALID,0.0169808,VALID,19.7153,VALID,154,VALID,0.631811,
2007-06-11, 02:55:00,VALID,914.813,VALID,0,VALID,100,VALID,0.0339617,VALID,19.7025,VALID,144,VALID,0.615589,
2007-06-11, 02:56:00,VALID,914.806,VALID,0,VALID,100,VALID,0.0169808,VALID,19.6996,VALID,139,VALID,0.794331,
2007-06-11, 02:57:00,VALID,914.796,VALID,0,VALID,100,VALID,0.0169808,VALID,19.6928,VALID,137,VALID,0.772485,
2007-06-11, 02:58:00,VALID,914.791,VALID,0,VALID,100,VALID,0.0679233,VALID,19.6796,VALID,130,VALID,0.999609,
2007-06-11, 02:59:00,VALID,914.765,VALID,0,VALID,100,VALID,-0.0169808,VALID,19.6903,VALID,131,VALID,0.982469,
2007-06-11, 03:00:00,VALID,914.77,VALID,0,VALID,100,VALID,-0.0849042,VALID,19.7008,VALID,131,VALID,1.03622,
2007-06-11, 03:01:00,VALID,914.764,VALID,0,VALID,100,VALID,-0.0849042,VALID,19.714,VALID,130,VALID,1.02458,
2007-06-11, 03:02:00,VALID,914.758,VALID,0,VALID,100,VALID,-0.0849042,VALID,19.7235,VALID,130,VALID,1.03054,
2007-06-11, 03:03:00,VALID,914.746,VALID,0,VALID,100,VALID,-0.0849042,VALID,19.7465,VALID,134,VALID,0.946733,
2007-06-11, 03:04:00,VALID,914.748,VALID,0,VALID,100,VALID,-0.101885,VALID,19.7562,VALID,130,VALID,0.695122,
2007-06-11, 03:05:00,VALID,914.737,VALID,0,VALID,100,VALID,-0.101885,VALID,19.7654,VALID,123,VALID,0.719914,
2007-06-11, 03:06:00,VALID,914.728,VALID,0,VALID,100,VALID,-0.0849042,VALID,19.7852,VALID,119,VALID,0.52832,
2007-06-11, 03:07:00,VALID,914.72,VALID,0,VALID,100,VALID,-0.101885,VALID,19.7884,VALID,119,VALID,0.811047,
2007-06-11, 03:08:00,VALID,914.709,VALID,0,VALID,100,VALID,-0.101885,VALID,19.7986,VALID,130,VALID,0.971112,
2007-06-11, 03:09:00,VALID,914.7,VALID,0,VALID,100,VALID,-0.118866,VALID,19.8016,VALID,138,VALID,0.854688,
2007-06-11, 03:10:00,VALID,914.69,VALID,0,VALID,100,VALID,-0.101885,VALID,19.8186,VALID,145,VALID,0.422852,
2007-06-11, 03:11:00,VALID,914.675,VALID,0,VALID,100,VALID,-0.101885,VALID,19.8119,VALID,156,VALID,0.823946,
2007-06-11, 03:12:00,VALID,914.667,VALID,0,VALID,100,VALID,-0.101885,VALID,19.8154,VALID,145,VALID,0.627344,
2007-06-11, 03:13:00,VALID,914.663,VALID,0,VALID,100,VALID,-0.101885,VALID,19.8116,VALID,147,VALID,0.621911,
2007-06-11, 03:14:00,VALID,914.66,VALID,0,VALID,100,VALID,-0.0509425,VALID,19.8114,VALID,128,VALID,0.889717,
2007-06-11, 03:15:00,VALID,914.659,VALID,0,VALID,100,VALID,0,VALID,19.8064,VALID,130,VALID,0.859545,
2007-06-11, 03:16:00,VALID,914.672,VALID,0,VALID,100,VALID,0,VALID,19.8064,VALID,142,VALID,0.769622,
2007-06-11, 03:17:00,VALID,914.667,VALID,0,VALID,100,VALID,0,VALID,19.8231,VALID,159,VALID,0.570645,
2007-06-11, 03:18:00,VALID,914.692,VALID,0,VALID,100,VALID,0.0169808,VALID,19.8161,VALID,143,VALID,0.627486,
2007-06-11, 03:19:00,VALID,914.691,VALID,0,VALID,100,VALID,0,VALID,19.8229,VALID,155,VALID,0.764482,
2007-06-11, 03:20:00,VALID,914.691,VALID,0,VALID,100,VALID,0.0169808,VALID,19.8196,VALID,151,VALID,0.793857,
2007-06-11, 03:21:00,VALID,914.695,VALID,0,VALID,100,VALID,0,VALID,19.8226,VALID,163,VALID,0.815163,
2007-06-11, 03:22:00,VALID,914.682,VALID,0,VALID,100,VALID,0.0169808,VALID,19.8293,VALID,162,VALID,1.03652,
2007-06-11, 03:23:00,VALID,914.685,VALID,0,VALID,100,VALID,0,VALID,19.8358,VALID,164,VALID,1.00632,
2007-06-11, 03:24:00,VALID,914.671,VALID,0,VALID,100,VALID,0,VALID,19.8326,VALID,153,VALID,1.02471,
2007-06-11, 03:25:00,VALID,914.678,VALID,0,VALID,100,VALID,0,VALID,19.8323,VALID,171,VALID,0.643821,
2007-06-11, 03:26:00,VALID,914.667,VALID,0,VALID,100,VALID,0,VALID,19.8358,VALID,160,VALID,1.03811,
2007-06-11, 03:27:00,VALID,914.658,VALID,0,VALID,100,VALID,-0.0169808,VALID,19.8393,VALID,174,VALID,0.81284,
2007-06-11, 03:28:00,VALID,914.644,VALID,0,VALID,100,VALID,0,VALID,19.8393,VALID,177,VALID,0.954241,
2007-06-11, 03:29:00,VALID,914.633,VALID,0.2,VALID,100,VALID,-0.0509425,VALID,19.8401,VALID,167,VALID,0.688519,
2007-06-11, 03:30:00,VALID,914.624,VALID,0,VALID,100,VALID,-0.0849042,VALID,19.8371,VALID,176,VALID,1.01885,
2007-06-11, 03:31:00,VALID,914.617,VALID,0,VALID,100,VALID,-0.101885,VALID,19.8338,VALID,172,VALID,0.671689,
2007-06-11, 03:32:00,VALID,914.61,VALID,0,VALID,100,VALID,-0.101885,VALID,19.8338,VALID,179,VALID,0.888672,
2007-06-11, 03:33:00,VALID,914.617,VALID,0,VALID,100,VALID,-0.0679233,VALID,19.8341,VALID,178,VALID,0.851744,
2007-06-11, 03:34:00,VALID,914.618,VALID,0,VALID,100,VALID,-0.0509425,VALID,19.8239,VALID,161,VALID,0.610863,
2007-06-11, 03:35:00,VALID,914.626,VALID,0,VALID,100,VALID,-0.101885,VALID,19.8306,VALID,180,VALID,0.79043,
2007-06-11, 03:36:00,VALID,914.628,VALID,0,VALID,100,VALID,-0.0849042,VALID,19.8408,VALID,186,VALID,0.95258,
2007-06-11, 03:37:00,VALID,914.625,VALID,0,VALID,100,VALID,-0.118866,VALID,19.8343,VALID,183,VALID,0.724219,
2007-06-11, 03:38:00,VALID,914.621,VALID,0,VALID,100,VALID,-0.0849042,VALID,19.8436,VALID,181,VALID,0.641387,